Starlink 31516

operational
NORAD ID: 59221 Int'l Des: 2024-046 Owner: SPXS Country: US Constellation: starlink
LEOCIRCULAR

About Starlink 31516

Description loading...

Live Position

Loading 3D Globe...

Upcoming Passes

Altitude History

Altitude vs Time

uPlot chart will show altitude changes over time

Two-Line Element Set

1 59221U 24046W 25351.52656300 .00000510 00000-0 29359-4 0 9996
2 59221 53.1599 176.7185 0001255 87.5660 272.5485 15.30193087100464
Epoch: Dec 17, 2025 • Age: 11 hours

Current Status

Altitude 488.6 km
Velocity 7.62 km/s
Sub-Earth Point -38.84°S, 60.14°E
Launch Date Mar 11, 2024
Age 1.7 years
Type internet

Technical Details

Classification Payload
Mass 730.00 kg
Dry Mass 700.00 kg
Total Mass 730.00 kg
Length 0.30 m
Diameter 4.10 m
Span 29.00 m
Shape Box + pan
Manufacturer SPXS
Bus Type Starlink V2M
Phase Status In Orbit
Owner/State SPXS/US

Large Constellations

Loading constellations...